Dewpoint
-1 -1 0 -0 -0 -1 0 2 2 1 -1 -1 -1 -3 -5 -6 -4 0 2 2 1 -0 -0 2 5 6 5 -2 -3 7 11 13 14 14 13 12 11 11 10 9 9 10 9 9
-0 2 -0 -1 -0 1 1 2 2 1 -1 -4 -4 -4 -5 -4 -2 -3 -4 -8 -11 -9 -6 -5 -2 4 9 11 12 13 13 14 14 14 14 11 9 9 9 9 8 10 10 11
1 -0 -1 -0 -0 -0 0 2 -0 -2 -4 -5 -4 -3 -4 -5 -9 -10 -11 -12 -13 -12 -11 -11 -10 -9 -7 -4 1 6 11 12 13 13 13 12 10 10 9 9 9 9 12 11
0 -1 -1 1 2 0 1 -2 -2 -1 -1 1 -4 1 -3 -4 -8 -10 -11 -13 -12 -10 -9 -9 -9 -10 -10 -10 -9 -8 -7 -6 0 8 11 11 11 12 11 10 9 10 11 11
3 2 2 2 2 -1 0 -2 -1 -1 -2 -2 -2 -0 -2 -5 -6 -9 -11 -13 -9 -9 -7 -6 -6 -8 -10 -8 -8 -9 -8 -7 -7 -11 -8 -5 0 9 10 11 10 10 10 10
1 -0 -1 0 -1 -1 -2 -2 -3 -1 -1 2 -0 -1 0 0 -5 -9 -11 -13 -8 -8 -6 -6 -8 -5 -4 -5 -7 -9 -9 -7 -5 -6 -5 -3 -5 -4 -4 1 9 9 9 9
4 2 -0 -3 -1 -3 -2 -0 4 5 4 4 2 2 -1 -7 -8 -10 -11 -12 -7 -4 -6 -7 -8 -10 -11 -9 -4 -2 -3 -6 -6 -6 -4 -3 -3 -4 -4 -6 -3 6 9 9
5 6 1 -3 -1 0 -1 1 5 6 6 4 2 5 1 -8 -11 -13 -13 -8 -4 -4 -5 -6 -7 -7 -8 -8 -8 -8 -4 -2 -3 -4 -7 -6 -4 -2 -4 -3 -2 -2 -2 4
5 5 0 -2 -3 -1 1 2 0 5 5 6 3 -1 -6 -8 -9 -10 -6 -4 -4 -5 -6 -5 -8 -8 -9 -11 -7 -5 -3 -3 -3 -4 -2 -2 -2 -2 -2 -1 -3 -4 -1 2
3 7 2 1 -2 -2 -1 -1 4 6 8 8 5 4 2 -7 -8 -6 -2 -3 -3 -4 -4 -7 -8 -8 -7 -6 -5 -5 -5 -2 -2 -3 -1 -1 0 1 1 0 -0 -1 -1 3
2 4 4 2 2 1 1 1 1 3 6 7 6 3 -6 -6 -7 -3 -3 -3 -3 -3 -4 -5 -7 -7 -5 -1 1 -3 -1 -1 -3 -2 -0 -1 -1 0 0 1 0 0 0 1
2 4 7 5 0 -2 -3 -2 -0 6 6 5 4 4 -5 -4 -4 -2 -2 -3 -3 -4 -4 -5 -3 -1 -0 1 1 -0 -1 -1 -1 -2 -4 -3 -2 -1 -1 -0 2 3 3 3
0 6 6 4 -2 -4 -4 -6 -4 2 2 2 2 3 -4 -5 -6 -2 -3 -3 -3 -3 -3 -2 -0 -1 0 1 1 -1 -1 -2 -4 -6 -7 -7 -5 -0 -0 -1 -0 1 4 4
2 4 4 6 3 -2 1 0 -1 1 2 1 2 1 -1 -5 -3 -4 -5 -5 -3 -3 -2 -1 0 0 0 1 1 0 -1 -0 -2 -6 -7 -5 -3 -2 -1 1 1 0 1 3
2 3 1 0 -0 0 2 1 -0 0 -1 0 -1 -2 -6 -3 -3 -5 -5 -4 -3 -2 -1 -0 0 -0 0 1 0 -0 0 -0 -1 -7 -6 -5 -3 -2 -1 0 1 1 2 1
2 2 1 -4 -2 -2 -0 -3 -4 -4 -5 -5 -5 -5 -4 -6 -6 -5 -5 -3 -2 -0 -0 -1 -0 -0 1 2 -1 -2 -1 1 -1 -5 -5 -4 -3 -2 -0 -0 -0 -0 0 0
2 1 2 1 -3 -3 -2 -3 -4 -5 -6 -6 -4 -5 -5 -7 -6 -5 -4 -3 -2 -0 -0 -0 -0 0 1 1 -0 -1 -0 0 -1 -3 -4 -3 -2 -1 -1 -2 -3 -3 -2 -2
2 2 2 1 -1 0 -6 -9 -8 -5 -4 -2 -2 -4 -7 -6 -4 -3 -3 -2 -1 -0 -1 -0 -1 -0 1 -0 -2 -2 -0 1 -1 -2 -4 -3 -2 -1 -2 -2 -3 -3 -2 -1
0 0 0 0 -2 -5 -8 -4 -2 -3 -4 -4 -5 -5 -5 -4 -3 -5 -3 -2 -1 -1 -1 -1 -1 -0 1 0 -3 -1 -0 0 -0 -2 -3 -2 -2 -2 -3 -3 -3 -3 -3 -2
-7 -3 -3 -4 -4 -2 -4 -3 -3 -4 -1 -5 -4 -5 -5 -3 -4 -5 -3 -2 -1 -1 -1 -1 -2 -0 1 2 2 1 0 0 0 -1 -2 -2 -2 -2 -3 -3 -3 -4 -4 -3
-5 -4 -6 -7 -7 -5 -2 -2 -2 -2 -5 -6 -4 -5 -4 -3 -3 -3 -2 -1 -2 -2 -2 -2 -2 -1 1 2 1 1 1 1 1 -0 -1 -1 -1 -2 -3 -3 -4 -4 -4 -4
-4 -4 -4 -4 -8 -7 -4 -3 -4 -7 -10 -10 -7 -5 -4 -3 -3 -1 -1 -2 -2 -2 -3 -3 -3 -2 -1 1 0 1 1 1 1 0 -1 -1 -1 -2 -3 -4 -4 -4 -4 -4
-5 -5 -6 -5 -5 -9 -8 -9 -11 -8 -8 -7 -4 -4 -3 -3 -2 -1 -2 -2 -3 -3 -4 -3 -3 -3 -2 -2 -1 -2 -2 -0 0 -1 -2 -2 -2 -2 -2 -4 -4 -4 -5 -5
-9 -9 -6 -7 -8 -8 -10 -9 -9 -9 -7 -5 -4 -2 -2 -2 -1 -3 -3 -3 -4 -4 -4 -4 -4 -4 -3 -2 -1 -1 -2 -1 -0 -1 -1 -2 -2 -2 -2 -3 -4 -5 -5 -5
-7 -8 -6 -7 -7 -8 -8 -8 -7 -5 -5 -3 -3 -2 -2 -2 -3 -4 -3 -4 -5 -5 -4 -4 -4 -4 -4 -4 -3 -3 -3 -2 -1 -1 -2 -2 -2 -1 -2 -2 -4 -5 -5 -4
-8 -7 -7 -6 -8 -8 -8 -5 -4 -3 -1 -2 -2 -2 -2 -4 -4 -4 -4 -5 -5 -4 -4 -5 -5 -5 -4 -5 -5 -4 -4 -3 -3 -3 -3 -3 -2 -2 -2 -2 -3 -4 -5 -5
Wind_Speed
1 3 7 11 9 6 4 5 11 12 19 4 11 8 10 14 13 17 20 25 25 27 27 26 20 14 12 9 15 26 35 39 44 43 42 41 36 35 33 33 35 38 43 49
4 6 9 4 6 7 8 12 16 13 11 6 8 9 8 8 6 14 16 22 25 25 26 29 31 30 22 16 7 6 13 23 28 34 35 36 33 35 33 34 35 38 44 48
6 6 2 4 3 5 5 6 5 10 4 4 4 5 5 4 12 16 17 16 21 20 21 22 24 26 27 29 25 17 4 8 18 26 29 30 30 30 25 28 29 35 40 46
5 2 5 2 6 5 5 7 9 7 3 5 1 10 8 7 7 7 13 18 19 20 20 21 21 23 24 23 21 21 21 22 17 9 15 19 19 22 24 25 27 28 34 44
8 5 7 4 7 4 9 5 7 5 6 1 3 4 3 10 5 4 5 14 17 17 18 21 22 18 18 20 19 18 16 18 19 15 15 15 16 20 22 26 22 28 30 40
9 7 4 8 7 7 4 4 4 3 1 8 13 10 1 2 6 4 3 11 13 16 18 19 20 20 21 20 15 12 13 13 21 17 15 17 20 21 20 21 25 26 26 28
9 6 5 2 3 1 2 4 4 4 1 6 2 4 6 7 8 7 4 8 10 12 17 19 22 23 22 22 21 18 21 25 27 29 33 33 28 24 25 26 23 25 24 22
7 6 4 2 4 5 5 7 5 6 4 14 2 6 4 7 9 7 7 9 8 13 16 18 23 24 25 24 21 23 23 24 23 25 28 28 32 34 34 30 27 25 27 28
4 5 1 1 4 6 3 4 2 2 2 5 5 4 5 5 4 3 7 9 12 16 19 19 25 25 29 27 21 20 22 23 25 29 27 27 30 33 35 37 39 36 31 31
3 14 6 2 2 4 5 4 1 2 4 8 6 6 4 6 7 3 3 8 9 12 17 26 31 30 33 33 32 25 19 20 20 23 24 25 25 22 30 35 33 36 36 33
3 4 4 2 6 6 2 3 2 2 5 7 8 4 7 5 2 1 4 8 12 17 24 28 35 34 32 27 26 15 11 13 17 19 19 21 22 21 19 23 32 33 34 32
4 3 8 9 5 2 2 3 2 7 3 2 3 5 9 5 5 7 10 13 16 21 27 32 32 33 26 26 22 12 9 15 14 16 19 21 22 22 21 20 23 26 32 32
2 3 5 5 2 4 2 2 6 3 1 5 3 4 6 23 17 10 12 18 20 21 20 24 27 38 30 27 19 7 9 12 16 18 18 19 20 23 21 20 21 25 26 31
5 3 6 13 5 1 4 2 5 3 3 4 8 15 16 21 8 12 17 18 24 31 34 31 32 38 30 23 19 12 10 13 19 20 20 22 21 24 26 27 27 25 25 27
3 5 4 8 9 9 8 9 10 12 12 10 17 20 18 6 10 13 19 26 29 32 30 33 40 41 26 22 12 9 14 14 19 23 24 26 26 27 27 28 30 32 33 30
3 3 1 4 7 10 13 9 10 15 17 17 17 18 3 6 9 13 18 21 25 25 31 35 43 40 30 12 10 13 19 18 18 22 25 28 29 30 28 28 30 33 34 35
3 2 1 4 1 7 8 6 11 8 12 11 11 9 3 5 7 14 22 24 22 27 32 32 36 36 29 19 20 22 19 15 17 21 26 28 29 31 30 29 26 27 27 30
3 2 1 3 4 5 2 2 2 5 4 4 2 3 5 9 18 23 17 11 22 24 29 30 34 37 30 23 15 12 14 11 16 21 25 28 29 30 28 24 24 22 18 16
9 1 3 3 4 10 7 5 5 4 5 6 4 5 7 11 15 12 5 19 22 22 25 26 30 31 26 22 14 8 5 12 16 21 24 27 29 29 25 21 18 16 15 15
4 3 3 1 2 6 2 3 10 6 5 3 7 8 4 8 5 4 18 21 20 22 21 22 28 22 22 23 15 7 11 14 19 21 24 27 28 27 21 17 17 16 14 15
2 1 4 2 3 6 4 5 3 0 5 11 14 17 10 4 9 23 21 17 19 19 21 21 25 19 21 21 15 13 14 17 18 20 23 26 27 25 18 15 15 15 14 13
3 2 3 1 2 6 7 4 5 8 9 14 15 13 14 19 22 18 13 16 17 18 20 20 22 23 17 18 19 17 18 19 18 21 24 25 27 26 18 13 13 13 13 11
3 5 4 6 5 5 11 16 24 18 21 20 11 14 19 23 23 8 11 11 14 17 19 20 22 19 16 15 18 22 24 22 21 21 23 24 24 25 23 14 11 11 9 9
4 4 3 2 2 8 20 27 22 15 19 13 12 23 28 18 8 10 13 11 13 17 19 20 20 22 22 18 15 20 21 21 20 21 24 25 25 23 22 17 11 9 10 9
8 4 5 6 7 16 11 13 11 12 14 14 15 14 7 4 7 9 10 15 17 18 16 17 21 21 23 25 23 21 22 20 21 23 24 24 25 24 20 17 13 10 11 10
10 7 4 5 11 6 15 13 13 17 15 14 9 6 6 8 9 11 12 16 19 17 19 21 23 22 23 24 25 27 23 21 23 24 25 25 23 22 21 18 14 11 11 10
Wind_Direction
89 115 215 221 206 218 216 234 257 268 281 245 255 260 275 290 31 52 52 65 50 42 42 37 23 357 347 284 243 240 242 240 236 226 229 233 238 234 241 249 251 249 250 249
32 236 234 228 231 248 258 266 273 280 274 202 280 293 286 64 75 65 58 61 58 54 49 47 44 46 42 37 26 258 243 238 234 224 223 237 245 244 242 249 256 255 253 257
169 235 97 199 259 228 243 234 251 262 282 270 293 268 204 54 88 81 72 64 59 52 46 41 40 40 45 50 48 44 20 250 234 221 228 244 247 249 245 248 260 264 255 248
245 238 187 261 267 220 231 219 239 259 294 276 149 289 215 139 113 62 54 37 39 41 38 32 31 32 28 30 29 29 25 28 21 331 256 259 259 265 269 265 275 267 246 256
255 280 286 259 243 196 241 249 267 262 216 238 204 252 351 122 112 95 45 33 43 39 33 29 26 22 23 20 15 17 15 7 5 354 354 345 327 294 273 270 281 267 271 243
245 268 228 226 238 224 282 308 283 16 141 263 230 200 230 140 144 118 41 26 35 29 30 25 22 20 17 11 8 5 353 349 332 344 343 333 324 313 310 305 277 269 260 263
297 238 242 188 254 350 142 69 311 309 208 242 38 254 270 142 119 123 94 21 25 29 14 8 2 359 355 357 356 347 333 323 319 314 303 296 296 295 289 292 293 283 259 254
275 298 204 146 193 219 200 171 179 254 230 285 126 248 245 120 100 89 50 41 17 10 5 359 353 343 340 342 340 328 322 324 317 311 308 300 284 280 278 273 266 261 271 258
303 250 260 214 202 153 207 185 204 291 72 287 230 80 19 121 92 73 64 35 14 -0 355 345 337 331 325 324 314 313 309 305 305 302 297 288 288 279 279 277 269 268 260 259
288 292 247 255 345 271 203 167 144 62 250 249 263 242 172 52 1 38 8 1 346 340 334 336 338 332 326 322 317 309 297 298 304 307 301 291 286 293 271 267 268 264 262 258
160 218 258 22 206 195 250 239 213 260 209 251 268 254 131 110 134 278 300 312 328 330 324 331 336 329 324 321 324 306 295 296 304 302 313 305 299 290 289 273 262 255 257 256
193 253 256 248 259 17 17 317 306 237 257 307 314 258 166 40 40 353 330 333 328 323 331 334 334 329 322 324 320 306 302 308 313 315 310 303 300 300 287 276 272 268 263 261
193 235 304 279 34 49 102 106 97 67 257 213 254 255 337 339 344 348 342 328 322 319 321 331 335 333 320 320 322 281 293 311 324 322 318 313 308 295 295 288 281 269 265 259
63 254 237 256 298 111 283 290 321 164 229 298 262 303 313 302 328 332 333 331 332 343 341 336 328 329 313 311 313 295 284 299 326 332 330 332 321 309 294 283 278 277 269 260
185 253 224 269 281 290 263 273 290 284 270 263 289 279 285 328 328 321 327 335 340 341 335 329 332 326 314 309 300 296 303 302 321 330 330 331 329 321 311 298 285 278 268 265
185 275 306 280 246 250 269 278 259 268 271 272 279 278 85 281 298 316 321 331 328 323 334 330 329 327 320 321 272 319 318 295 308 322 327 330 328 324 314 303 294 281 271 266
202 219 263 269 336 311 286 242 243 252 275 282 277 291 349 319 321 318 313 318 320 321 327 334 334 324 331 316 299 286 311 291 304 322 326 329 329 324 318 311 302 294 285 276
195 206 227 282 325 254 141 296 253 266 256 237 270 259 265 290 305 306 313 301 322 319 326 338 333 331 347 339 332 287 297 285 305 321 332 335 334 330 324 317 312 306 296 291
212 219 261 257 271 300 309 10 359 4 280 205 218 271 277 310 313 316 315 319 317 322 325 338 332 333 352 0 340 344 328 295 315 331 340 342 341 335 331 324 321 320 317 318
148 164 152 120 236 271 103 38 13 11 273 268 219 251 256 326 321 259 313 312 326 327 333 339 334 337 2 12 8 350 326 326 328 334 347 349 346 337 333 329 331 329 328 321
1 355 189 224 236 287 172 227 235 231 265 248 224 257 271 242 261 287 310 323 332 332 340 345 341 348 4 14 349 344 339 335 331 339 349 353 348 340 335 332 336 335 336 326
203 196 224 213 41 290 198 182 162 239 278 280 256 265 276 287 295 297 313 328 330 339 342 347 348 348 359 3 3 356 343 338 340 344 346 348 351 348 339 334 335 333 330 319
246 187 191 181 219 243 258 270 293 274 287 287 298 305 299 288 288 305 319 322 339 342 343 349 351 348 347 351 349 345 344 337 327 324 330 338 341 349 345 331 331 319 312 288
261 239 211 39 246 254 286 294 291 276 274 274 281 290 290 284 314 327 328 335 345 339 346 348 350 354 352 352 344 338 327 326 322 320 319 324 330 337 342 330 316 300 285 269
206 192 220 255 279 283 282 306 280 297 287 257 293 312 329 334 325 331 334 336 340 339 341 347 351 351 350 348 344 335 323 323 317 314 312 314 318 325 326 323 308 292 277 268
193 209 173 227 225 236 287 291 292 306 302 268 292 296 315 331 337 337 333 328 331 336 343 347 347 349 347 346 344 344 336 326 326 321 317 311 305 304 308 306 300 282 277 277
Height
1478 1484 1488 1481 1481 1480 1483 1485 1484 1471 1459 1468 1463 1461 1456 1448 1450 1448 1445 1442 1441 1440 1437 1431 1424 1420 1419 1418 1419 1423 1426 1426 1430 1433 1432 1439 1441 1439 1443 1445 1444 1448 1450 1451
1483 1486 1474 1475 1478 1481 1482 1484 1479 1470 1460 1463 1459 1456 1449 1450 1453 1449 1448 1443 1440 1438 1436 1433 1429 1424 1420 1420 1421 1422 1424 1425 1429 1430 1432 1434 1437 1437 1435 1439 1439 1440 1442 1443
1482 1473 1469 1472 1474 1478 1478 1480 1475 1470 1461 1458 1457 1455 1449 1454 1451 1450 1449 1448 1442 1439 1438 1437 1435 1432 1426 1424 1424 1426 1424 1426 1427 1427 1428 1433 1431 1436 1430 1434 1438 1437 1438 1437
1474 1467 1468 1470 1474 1471 1479 1463 1465 1465 1468 1473 1455 1456 1443 1450 1453 1452 1450 1448 1443 1442 1441 1438 1436 1434 1433 1429 1428 1427 1429 1428 1429 1427 1427 1429 1430 1435 1430 1431 1432 1435 1435 1435
1474 1466 1467 1470 1467 1463 1465 1456 1459 1457 1463 1463 1463 1471 1438 1445 1452 1453 1451 1450 1446 1444 1441 1439 1438 1437 1435 1432 1430 1428 1427 1430 1429 1431 1429 1428 1429 1430 1427 1429 1429 1431 1431 1429
1469 1464 1463 1460 1455 1456 1454 1458 1458 1462 1465 1467 1450 1458 1437 1444 1448 1450 1451 1449 1447 1445 1443 1441 1440 1438 1436 1431 1429 1428 1426 1426 1427 1428 1426 1426 1427 1429 1426 1427 1425 1425 1427 1428
1465 1462 1454 1454 1458 1456 1456 1465 1483 1475 1476 1463 1447 1451 1434 1441 1441 1445 1446 1448 1447 1446 1444 1440 1438 1435 1433 1431 1429 1427 1422 1421 1421 1421 1420 1421 1422 1423 1422 1421 1423 1422 1420 1422
1472 1466 1453 1454 1455 1457 1458 1462 1477 1479 1470 1443 1443 1444 1437 1445 1447 1448 1448 1448 1448 1445 1441 1437 1434 1433 1432 1428 1425 1423 1418 1415 1417 1417 1411 1412 1412 1412 1414 1415 1413 1415 1415 1416
1473 1466 1453 1452 1451 1453 1457 1464 1457 1464 1465 1466 1437 1445 1450 1448 1450 1450 1449 1447 1445 1443 1439 1436 1433 1430 1428 1425 1425 1423 1418 1414 1411 1410 1407 1406 1403 1404 1402 1405 1406 1406 1406 1408
1467 1462 1451 1451 1453 1452 1453 1452 1464 1477 1469 1454 1432 1432 1439 1452 1449 1450 1449 1449 1448 1444 1440 1434 1427 1424 1420 1418 1415 1412 1412 1411 1407 1405 1401 1397 1397 1394 1392 1394 1394 1395 1396 1397
1469 1470 1457 1455 1456 1455 1455 1456 1455 1460 1459 1447 1438 1435 1450 1451 1450 1450 1449 1447 1443 1439 1435 1429 1423 1419 1415 1411 1406 1403 1405 1404 1403 1401 1396 1393 1391 1389 1387 1384 1386 1386 1392 1387
1466 1466 1460 1455 1452 1451 1455 1455 1454 1461 1457 1460 1462 1443 1443 1447 1449 1449 1446 1443 1437 1434 1428 1425 1422 1417 1411 1405 1401 1398 1398 1399 1398 1396 1393 1390 1387 1383 1381 1379 1381 1377 1380 1380
1470 1471 1467 1448 1455 1452 1455 1457 1460 1474 1474 1467 1470 1448 1441 1437 1441 1445 1442 1438 1435 1432 1428 1421 1417 1411 1405 1402 1399 1395 1395 1396 1395 1392 1390 1386 1382 1380 1377 1376 1372 1370 1370 1371
1474 1474 1465 1449 1449 1461 1464 1460 1461 1472 1472 1465 1458 1456 1453 1448 1447 1444 1443 1440 1433 1423 1419 1414 1411 1407 1401 1397 1395 1392 1391 1391 1389 1387 1385 1381 1377 1373 1370 1367 1366 1364 1363 1364
1475 1472 1472 1465 1462 1461 1465 1467 1465 1470 1466 1464 1457 1454 1444 1445 1445 1441 1437 1432 1428 1424 1420 1415 1406 1400 1394 1390 1388 1387 1387 1386 1385 1383 1380 1376 1372 1367 1362 1359 1356 1356 1355 1354
1474 1469 1471 1482 1462 1461 1462 1459 1457 1454 1450 1446 1444 1441 1444 1443 1441 1437 1435 1432 1429 1425 1418 1411 1405 1395 1389 1385 1383 1383 1383 1383 1383 1381 1377 1372 1367 1362 1357 1353 1350 1347 1344 1343
1472 1472 1469 1464 1460 1460 1463 1456 1450 1445 1444 1445 1445 1443 1444 1444 1441 1439 1432 1430 1427 1423 1417 1410 1403 1394 1388 1383 1383 1380 1379 1380 1380 1378 1374 1369 1362 1357 1351 1347 1343 1338 1335 1332
1467 1468 1468 1464 1464 1464 1449 1447 1447 1446 1444 1443 1443 1443 1444 1444 1441 1437 1431 1428 1425 1422 1416 1407 1401 1392 1386 1379 1376 1375 1377 1378 1377 1375 1370 1365 1359 1352 1346 1341 1338 1333 1330 1327
1464 1467 1469 1469 1463 1451 1447 1451 1453 1450 1447 1442 1444 1441 1441 1441 1439 1433 1430 1428 1424 1419 1413 1407 1401 1393 1386 1377 1375 1374 1375 1376 1374 1371 1367 1362 1355 1349 1343 1338 1335 1331 1328 1325
1459 1465 1477 1480 1484 1466 1451 1457 1456 1454 1451 1442 1441 1437 1438 1440 1444 1434 1428 1423 1419 1415 1411 1405 1400 1394 1387 1380 1377 1376 1376 1374 1372 1369 1364 1359 1353 1347 1342 1338 1334 1331 1328 1325
1464 1469 1482 1491 1494 1466 1454 1451 1454 1460 1454 1437 1435 1435 1435 1437 1434 1427 1422 1418 1416 1412 1407 1403 1398 1391 1386 1380 1378 1376 1375 1373 1370 1367 1363 1358 1353 1347 1342 1338 1335 1332 1329 1327
1465 1473 1477 1473 1494 1480 1447 1450 1455 1445 1439 1436 1434 1432 1431 1429 1426 1423 1420 1416 1413 1409 1405 1401 1395 1390 1385 1382 1379 1376 1374 1371 1367 1364 1362 1358 1353 1347 1342 1339 1336 1334 1332 1330
1468 1464 1472 1465 1457 1444 1444 1441 1437 1436 1435 1433 1431 1430 1428 1425 1421 1419 1417 1415 1411 1407 1404 1400 1395 1390 1386 1383 1380 1375 1372 1369 1366 1363 1361 1357 1353 1348 1343 1339 1338 1336 1334 1333
1457 1455 1457 1455 1441 1440 1438 1436 1433 1431 1430 1429 1427 1426 1422 1419 1418 1417 1415 1412 1410 1407 1402 1398 1395 1390 1386 1382 1380 1377 1373 1369 1365 1361 1358 1355 1351 1347 1344 1340 1338 1337 1336 1336
1454 1452 1449 1449 1437 1434 1431 1432 1430 1429 1428 1426 1425 1423 1420 1419 1418 1416 1413 1410 1407 1404 1401 1398 1393 1389 1386 1382 1379 1375 1371 1367 1362 1358 1354 1351 1348 1345 1343 1340 1337 1337 1337 1337
1442 1440 1449 1442 1432 1430 1428 1428 1428 1426 1424 1424 1423 1421 1420 1418 1416 1414 1412 1408 1405 1401 1397 1394 1391 1389 1385 1382 1378 1372 1368 1364 1359 1354 1350 1346 1344 1341 1340 1338 1336 1336 1335 1336